User: anonymous   Login
Location: Bojarzin Observatory
(39.7980°N, 89.7627°W)
Time: 19:18:20
(UTC-05:00)
Language:

ISS - Orbit

View from above orbital plane
View from above orbital plane
View from above satellite
View from above satellite

Ground track
Ground track

The orbit data is extracted from the following two-line orbital elements,

1 25544U 98067A   17176.52405320  .00016717  00000-0  10270-3 0  9022
2 25544  51.6378 356.7775 0004947 320.8204  39.2590 15.54093443 23040
Epoch (UTC): 25 June 2017 12:34:38
Eccentricity: 0.0004947
inclination: 51.6378°
perigee height: 401 km
apogee height: 408 km
right ascension of ascending node: 356.7775°
argument of perigee: 320.8204°
revolutions per day: 15.54093443
mean anomaly at epoch: 39.2590°
orbit number at epoch: 2304

The dashed part of the orbit path shows where the satellite is in the earth's shadow,  

DLR